Clarksdale Fletcher Field Air, MS

12:24 PM CST on November 12, 2019 (GMT -0600)
Fletcher

Weather History for KCKM - September, 2019

Change the Weather History Date:

Saturday, September 21, 2019

  Actual Average (WUND) Record (WUND)
Temperature  
Mean Temperature 78 °F -  
Max Temperature 89 °F - - (-1)
Min Temperature 66 °F - - (-1)
Cooling Degree Days 12    
Growing Degree Days 28 (Base 50)    
Moisture  
Dew Point 64 °F    
Average Humidity 67    
Maximum Humidity 100    
Minimum Humidity 38    
Precipitation  
Precipitation 0.00 in - - ()
Sea Level Pressure  
Sea Level Pressure 30.15 in    
Wind  
Wind Speed 4 mph ()    
Max Wind Speed 12 mph    
Max Gust Speed 17 mph    
Visibility 10.0 miles    
Events      
Averages and records for this station are not official NWS values.
T = Trace of Precipitation, MM = Missing Value Source: Averaged Metar Reports

Daily Weather History Graph

Daily Weather History Graph

Search for Another Location

Airport or City:

Astronomy

Sep. 21, 2019 Rise Set
Actual Time 6:49 AM CDT 7:00 PM CDT
Civil Twilight 6:24 AM CDT 7:25 PM CDT
Nautical Twilight 5:54 AM CDT 7:54 PM CDT
Astronomical Twilight 5:25 AM CDT 8:24 PM CDT
Moon 11:55 PM CDT (9/21) 1:39 PM CDT (9/21)
Length of Visible Light 13h 01m
Length of Day
12h 11m
Waning Gibbous, 54% of the Moon is Illuminated
Sep 21
Waning Gibbous
Sep 21
Last Quarter
Sep 28
New
Oct 5
First Quarter
Oct 13
Full

Hourly Weather History & Observations

Time (CDT) Temp. Heat Index Dew Point Humidity Pressure Visibility Wind Dir Wind Speed Gust Speed Precip Events Conditions
12:15 AM 73.4 °F - 68.0 °F 83% 30.15 in 10.0 mi SE 6.9 mph - N/A   Unknown
12:35 AM 71.6 °F - 68.0 °F 88% 30.15 in - ESE 6.9 mph - N/A   Unknown
12:55 AM 71.6 °F - 68.0 °F 88% 30.15 in 10.0 mi ESE 6.9 mph - N/A   Unknown
1:35 AM 69.8 °F - 68.0 °F 94% 30.15 in 10.0 mi Calm Calm - N/A   Unknown
1:55 AM 69.8 °F - 66.2 °F 88% 30.15 in 10.0 mi Calm Calm - N/A   Unknown
2:15 AM 69.8 °F - 66.2 °F 88% 30.15 in 10.0 mi Calm Calm - N/A   Unknown
2:35 AM 68.0 °F - 66.2 °F 94% 30.15 in 10.0 mi Calm Calm - N/A   Unknown
2:55 AM 68.0 °F - 66.2 °F 94% 30.15 in 10.0 mi Calm Calm - N/A   Unknown
3:35 AM 68.0 °F - 64.4 °F 88% 30.15 in 10.0 mi Calm Calm - N/A   Unknown
3:55 AM 68.0 °F - 64.4 °F 88% 30.15 in 10.0 mi Calm Calm - N/A   Unknown
4:35 AM 66.2 °F - 66.2 °F 100% 30.16 in 10.0 mi Calm Calm - N/A   Unknown
4:55 AM 66.2 °F - 64.4 °F 94% 30.16 in 10.0 mi Calm Calm - N/A   Unknown
5:55 AM 66.2 °F - 64.4 °F 94% 30.18 in 10.0 mi SE 5.8 mph - N/A   Unknown
6:15 AM 66.2 °F - 64.4 °F 94% 30.19 in 10.0 mi Calm Calm - N/A   Unknown
6:35 AM 66.2 °F - 64.4 °F 94% 30.19 in 10.0 mi SE 4.6 mph - N/A   Unknown
6:55 AM 66.2 °F - 64.4 °F 94% 30.19 in 10.0 mi Calm Calm - N/A   Unknown
7:15 AM 66.2 °F - 64.4 °F 94% 30.20 in - Calm Calm - N/A   Unknown
7:35 AM 68.0 °F - 64.4 °F 88% 30.21 in 10.0 mi Calm Calm - N/A   Unknown
7:55 AM 68.0 °F - 66.2 °F 94% 30.22 in 10.0 mi Calm Calm - N/A   Unknown
8:15 AM 69.8 °F - 64.4 °F 83% 30.22 in 10.0 mi SE 6.9 mph - N/A   Unknown
8:35 AM 71.6 °F - 66.2 °F 83% 30.22 in 10.0 mi SE 4.6 mph - N/A   Unknown
8:55 AM 73.4 °F - 64.4 °F 73% 30.23 in 10.0 mi Calm Calm - N/A   Unknown
9:15 AM 77.0 °F - 66.2 °F 69% 30.23 in 10.0 mi SSE 5.8 mph - N/A   Unknown
9:35 AM 78.8 °F - 66.2 °F 65% 30.23 in 10.0 mi Calm Calm - N/A   Unknown
9:55 AM 80.6 °F 83.2 °F 68.0 °F 65% 30.23 in 10.0 mi SSE 5.8 mph - N/A   Unknown
10:15 AM 82.4 °F 85.4 °F 68.0 °F 62% 30.23 in 10.0 mi Calm Calm - N/A   Unknown
10:35 AM 84.2 °F 86.6 °F 66.2 °F 55% 30.22 in 10.0 mi Calm Calm - N/A   Unknown
10:55 AM 86.0 °F 88.2 °F 66.2 °F 51% 30.22 in 10.0 mi SSE 6.9 mph - N/A   Unknown
11:15 AM 86.0 °F 87.3 °F 64.4 °F 48% 30.21 in 10.0 mi SSE 8.1 mph - N/A   Unknown
11:35 AM 86.0 °F 87.3 °F 64.4 °F 48% 30.21 in 10.0 mi SE 6.9 mph 13.8 mph N/A   Unknown
11:55 AM 87.8 °F 89.4 °F 64.4 °F 46% 30.20 in 10.0 mi SE 10.4 mph - N/A   Unknown
12:15 PM 86.0 °F 86.6 °F 62.6 °F 45% 30.20 in 10.0 mi South 8.1 mph 16.1 mph N/A   Unknown
12:35 PM 87.8 °F 88.5 °F 62.6 °F 43% 30.19 in 10.0 mi South 11.5 mph 17.3 mph N/A   Unknown
12:55 PM 87.8 °F 89.4 °F 64.4 °F 46% 30.18 in 10.0 mi SSW 6.9 mph - N/A   Unknown
1:15 PM 87.8 °F 88.5 °F 62.6 °F 43% 30.18 in 10.0 mi South 9.2 mph - N/A   Unknown
1:35 PM 87.8 °F 88.5 °F 62.6 °F 43% 30.17 in 10.0 mi SE 5.8 mph 15.0 mph N/A   Unknown
1:55 PM 87.8 °F 88.5 °F 62.6 °F 43% 30.16 in 10.0 mi Calm Calm 13.8 mph N/A   Unknown
2:15 PM 89.6 °F 90.1 °F 62.6 °F 40% 30.15 in 10.0 mi South 9.2 mph - N/A   Unknown
2:55 PM 89.6 °F 90.1 °F 62.6 °F 40% 30.14 in 10.0 mi SSE 9.2 mph - N/A   Unknown
3:15 PM 87.8 °F 88.5 °F 62.6 °F 43% 30.12 in 10.0 mi SSE 10.4 mph 16.1 mph N/A   Unknown
3:35 PM 89.6 °F 90.1 °F 62.6 °F 40% 30.12 in 10.0 mi SSE 9.2 mph - N/A   Unknown
3:55 PM 89.6 °F 90.1 °F 62.6 °F 40% 30.11 in 10.0 mi SE 10.4 mph - N/A   Unknown
4:15 PM 89.6 °F 90.1 °F 62.6 °F 40% 30.11 in 10.0 mi SSE 6.9 mph 13.8 mph N/A   Unknown
4:35 PM 87.8 °F 87.6 °F 60.8 °F 40% 30.11 in 10.0 mi SE 5.8 mph - N/A   Unknown
4:55 PM 86.0 °F 86.1 °F 60.8 °F 43% 30.11 in 10.0 mi SE 5.8 mph - N/A   Unknown
5:15 PM 87.8 °F 87.6 °F 60.8 °F 40% 30.10 in 10.0 mi SSE 6.9 mph - N/A   Unknown
5:55 PM 87.8 °F 87.1 °F 59.0 °F 38% 30.10 in 10.0 mi ESE 8.1 mph - N/A   Unknown
6:15 PM 86.0 °F 86.1 °F 60.8 °F 43% 30.10 in 10.0 mi ESE 5.8 mph - N/A   Unknown
6:35 PM 84.2 °F 85.0 °F 62.6 °F 48% 30.09 in 10.0 mi ESE 6.9 mph - N/A   Unknown
6:55 PM 82.4 °F 83.4 °F 62.6 °F 51% 30.10 in 10.0 mi ESE 6.9 mph - N/A   Unknown
7:15 PM 78.8 °F - 62.6 °F 57% 30.09 in 10.0 mi ESE 5.8 mph - N/A   Unknown
7:35 PM 77.0 °F - 62.6 °F 61% 30.10 in 10.0 mi ESE 5.8 mph - N/A   Unknown
7:55 PM 75.2 °F - 64.4 °F 69% 30.10 in 10.0 mi ESE 3.5 mph - N/A   Unknown
8:15 PM 75.2 °F - 64.4 °F 69% 30.10 in 10.0 mi East 5.8 mph - N/A   Unknown
8:35 PM 73.4 °F - 64.4 °F 73% 30.11 in 10.0 mi Calm Calm - N/A   Unknown
8:55 PM 73.4 °F - 64.4 °F 73% 30.11 in 10.0 mi Calm Calm - N/A   Unknown
9:15 PM 73.4 °F - 64.4 °F 73% 30.11 in 10.0 mi Calm Calm - N/A   Unknown
9:35 PM 73.4 °F - 64.4 °F 73% 30.11 in 10.0 mi Calm Calm - N/A   Unknown
9:55 PM 73.4 °F - 64.4 °F 73% 30.11 in 10.0 mi ESE 6.9 mph - N/A   Unknown
10:15 PM 73.4 °F - 64.4 °F 73% 30.11 in 10.0 mi ESE 5.8 mph - N/A   Unknown
10:35 PM 73.4 °F - 64.4 °F 73% 30.12 in 10.0 mi SE 6.9 mph - N/A   Unknown
11:15 PM 73.4 °F - 64.4 °F 73% 30.11 in 10.0 mi SE 8.1 mph - N/A   Unknown
11:35 PM 73.4 °F - 64.4 °F 73% 30.11 in 10.0 mi ESE 8.1 mph - N/A   Unknown
11:55 PM 71.6 °F - 64.4 °F 78% 30.11 in 10.0 mi ESE 5.8 mph - N/A   Unknown